Probability
0 0 0 0 0 0 0 0 1 2 3 3 2 1 1 2 4 5 6 6 5 3 2 2 4 6 6 6 4 2 2 3 2 1 0 0 0 0 2 4 7 9 7 4
0 0 0 0 0 0 0 0 1 2 3 3 2 1 2 4 6 7 7 7 5 3 3 3 4 5 6 6 4 2 2 3 2 1 1 1 1 2 4 6 8 7 5 4
0 0 0 0 0 0 1 1 1 1 2 3 3 3 3 4 6 7 7 7 5 4 5 4 3 4 5 5 4 3 3 4 4 4 3 2 3 4 6 7 6 5 3 2
0 0 0 0 0 1 2 2 2 1 2 3 3 3 3 4 6 7 6 5 4 5 5 5 4 4 4 5 5 5 5 6 7 6 4 4 4 5 6 6 4 2 2 2
0 0 0 0 0 1 2 2 2 2 3 3 3 3 3 5 6 7 6 5 5 6 6 6 5 4 4 6 7 7 7 7 8 6 5 5 5 5 4 4 3 1 2 3
0 0 0 0 0 1 1 1 2 3 3 3 3 3 4 6 8 7 6 6 7 7 6 6 5 4 4 5 6 6 7 7 8 6 5 5 4 4 3 3 2 1 1 2
0 0 0 0 1 1 1 1 2 3 3 3 3 3 4 6 8 7 7 7 7 6 5 5 3 2 2 3 4 6 8 8 7 6 4 4 3 3 3 3 2 1 0 1
0 0 0 1 2 2 1 1 3 4 4 4 3 3 4 5 6 9 10 8 5 4 4 3 1 0 1 2 4 7 9 8 6 4 3 3 3 3 2 2 1 0 0 0
0 0 0 1 2 3 3 3 4 5 6 5 5 5 4 4 6 9 12 10 5 2 2 1 1 1 1 3 5 7 8 7 5 3 3 3 3 2 1 0 0 0 0 0
0 0 0 0 1 2 3 5 6 6 6 6 6 5 4 4 6 8 9 8 5 1 1 1 1 2 3 4 5 5 6 5 3 2 2 2 1 1 0 0 0 0 0 0
0 0 0 0 0 1 2 4 5 6 6 6 5 4 4 5 7 7 5 4 3 2 1 2 2 2 2 3 3 4 4 3 1 1 1 1 0 0 0 0 0 0 0 0
0 0 0 0 0 1 1 2 4 4 4 4 4 4 5 7 8 8 4 2 3 2 2 2 2 1 1 1 2 2 2 1 0 0 0 0 0 0 0 0 0 0 0 0
0 0 0 1 1 2 1 1 2 3 3 3 3 4 5 7 8 7 4 2 2 2 1 1 1 0 0 0 1 1 1 0 0 0 0 0 0 0 0 0 0 0 0 0
0 0 0 1 2 3 3 2 3 4 4 3 2 2 4 6 7 5 3 1 1 1 0 0 0 0 0 0 0 0 0 0 0 0 0 0 0 0 0 0 0 0 0 0
0 0 0 1 2 3 4 5 6 6 5 4 2 1 3 5 6 4 2 1 0 1 1 1 1 2 1 1 1 0 0 0 0 0 0 0 0 0 0 0 0 0 0 0
0 0 0 0 1 1 4 6 7 7 6 5 3 2 3 5 5 5 3 1 1 2 2 3 3 3 3 3 2 1 0 0 0 0 0 0 0 0 0 0 0 0 0 0
0 0 0 0 0 0 1 3 5 6 5 4 3 2 2 3 4 3 3 2 2 2 2 3 3 2 2 2 2 1 0 0 0 0 0 0 0 0 0 0 0 0 0 0
0 0 0 0 0 0 0 1 3 3 3 2 2 1 1 1 1 1 2 3 3 3 2 2 1 0 0 1 1 1 0 1 1 1 1 2 1 1 1 1 0 0 0 0
0 0 0 0 0 0 0 1 1 2 2 2 2 2 1 0 0 1 2 3 3 3 4 3 1 0 1 1 1 0 0 2 3 3 3 3 3 2 2 1 0 0 0 0
0 0 0 0 0 0 0 0 1 1 1 2 2 2 1 0 0 0 1 2 3 3 3 2 1 1 1 2 1 0 0 1 2 2 3 3 3 3 2 1 0 0 0 0
0 0 0 0 0 0 0 0 1 1 1 2 3 2 1 0 0 0 0 1 3 3 3 2 2 2 2 1 1 0 0 0 0 1 2 2 2 2 1 0 0 0 0 0
0 0 0 0 0 0 0 0 1 1 1 2 3 3 1 0 1 1 1 1 2 3 3 3 3 3 2 0 0 0 0 0 0 0 1 1 1 1 1 0 0 0 0 0
0 0 0 0 0 0 0 0 0 0 1 2 3 3 2 1 2 2 2 1 2 3 3 3 3 3 1 1 1 0 0 0 0 0 0 0 0 0 0 0 0 0 0 0
0 0 0 0 0 0 0 0 0 0 0 1 2 2 1 0 1 1 1 0 1 1 3 3 3 2 1 2 2 1 1 1 0 0 0 0 0 0 0 0 0 0 0 0
0 0 0 0 0 0 0 0 0 0 0 0 1 1 0 0 0 0 0 0 0 1 2 3 2 1 1 2 3 2 1 1 0 0 0 0 0 0 0 0 0 0 0 0
0 0 0 0 0 0 0 0 0 0 0 0 0 0 0 0 0 1 0 0 1 1 3 3 2 1 1 2 3 3 2 1 0 0 0 0 0 0 0 0 0 0 0 0
0 0 0 0 0 0 0 0 0 0 0 0 0 0 0 0 0 1 0 1 2 2 3 3 2 1 1 2 3 3 2 1 0 0 0 0 0 0 0 0 0 0 0 0
Wind_Speed
3 3 2 3 3 5 5 6 7 6 6 7 5 5 4 3 3 3 2 3 3 3 2 2 2 2 3 3 2 3 3 2 2 1 1 1 2 2 1 1 1 1 1 1
0 0 1 1 2 3 3 3 3 2 5 4 2 2 2 3 4 3 4 3 3 3 3 3 3 3 3 2 2 2 3 2 2 1 1 1 1 1 1 1 1 1 1 1
2 2 2 2 4 4 3 3 5 6 6 2 1 4 6 5 5 5 5 4 4 4 4 4 4 4 4 3 2 2 2 1 1 1 1 1 1 0 0 1 1 1 1 1
2 2 3 7 2 3 3 1 2 3 3 4 4 3 2 3 5 5 4 4 4 4 4 3 3 3 3 3 3 3 2 2 1 1 1 1 0 0 0 0 0 0 1 1
4 3 3 5 2 3 4 2 2 3 2 2 3 3 2 2 4 5 5 4 4 4 4 3 3 3 3 3 2 2 2 2 2 1 1 1 0 1 0 0 0 1 1 1
5 4 5 6 3 2 4 3 3 4 5 4 4 2 4 2 2 2 2 3 3 3 3 3 2 3 4 3 2 3 3 3 2 2 2 1 1 1 1 1 1 1 1 1
4 3 6 6 2 2 3 7 3 4 5 6 5 5 4 2 2 2 2 3 4 4 3 2 2 4 3 3 3 3 2 2 2 2 2 2 1 1 1 1 0 1 1 1
4 3 6 3 2 5 7 3 3 3 4 5 3 2 2 2 3 3 3 3 5 4 3 2 3 4 3 3 3 2 2 2 2 1 1 1 1 1 1 1 1 1 1 1
6 6 4 2 3 3 2 3 2 3 3 4 3 2 2 2 2 3 3 4 4 4 3 2 2 3 4 3 2 2 2 2 2 1 1 1 1 1 1 1 1 1 1 1
1 4 3 3 2 2 0 2 1 2 3 4 3 3 2 2 3 3 3 3 3 4 4 2 2 2 3 2 2 3 2 1 1 1 0 0 1 1 1 2 2 2 2 2
1 3 3 3 2 2 2 2 2 2 2 3 4 3 3 3 3 3 3 3 3 4 4 3 2 2 2 2 3 2 2 1 1 1 1 1 1 1 2 3 4 4 3 3
5 5 4 4 3 1 1 1 1 2 2 1 3 3 3 3 3 3 3 3 3 3 3 3 2 2 2 2 3 3 2 2 2 1 1 1 1 2 2 2 3 4 5 4
4 2 3 3 2 0 1 1 1 2 2 1 1 2 3 2 3 3 3 3 4 4 3 3 3 3 2 2 3 3 3 2 2 2 2 2 2 1 2 2 2 2 3 4
2 2 0 1 2 1 1 0 1 1 1 1 1 2 2 2 3 3 3 3 3 3 3 3 3 3 2 2 3 3 3 3 2 2 2 2 2 2 2 2 2 2 2 2
2 2 3 2 0 1 1 2 2 1 1 1 1 1 2 3 3 3 3 2 3 2 2 2 2 2 2 2 3 3 2 2 2 2 2 2 2 2 2 2 2 2 2 2
1 1 1 2 1 0 0 1 1 1 1 0 1 1 2 3 3 2 2 3 4 4 3 3 3 3 2 2 2 2 2 2 2 1 1 1 1 1 1 2 2 2 2 2
3 2 1 1 1 1 2 2 3 2 1 2 2 2 1 2 2 1 2 3 3 4 3 4 4 3 2 3 3 2 1 2 2 1 1 1 1 2 2 2 2 2 3 3
4 5 5 5 4 2 2 1 1 2 2 2 1 2 2 3 3 3 3 2 1 1 2 3 3 2 2 3 2 1 1 1 1 2 1 1 1 1 1 2 2 3 3 2
2 2 2 2 2 2 2 2 2 2 2 2 2 3 2 2 2 3 2 2 2 3 3 3 3 2 2 3 4 2 2 2 2 2 2 2 1 1 1 2 2 2 2 2
1 1 1 1 1 1 1 1 1 1 1 2 2 2 1 2 1 2 2 3 4 4 3 2 2 2 3 3 3 2 2 2 2 2 2 2 2 2 2 2 2 2 2 2
1 1 1 0 1 1 1 2 1 2 1 2 3 3 3 2 2 2 2 2 3 2 2 3 2 2 2 3 3 2 2 2 2 3 2 2 2 2 2 2 2 2 3 3
0 0 1 1 1 1 2 1 1 2 1 1 2 2 3 3 3 2 2 3 3 2 2 2 2 3 3 3 2 2 2 3 3 2 2 3 3 3 3 2 2 3 3 3
1 1 1 2 2 2 2 1 1 1 2 2 2 2 3 3 3 3 2 2 2 3 2 2 3 4 4 2 2 2 3 3 3 3 2 3 3 3 3 3 3 3 3 3
1 1 2 2 0 1 2 3 2 1 1 1 2 2 2 2 1 2 2 2 2 3 2 2 3 3 3 2 2 3 3 3 2 2 2 3 3 3 3 3 3 3 3 4
1 1 1 1 1 2 2 2 1 1 1 1 1 1 1 2 2 2 1 1 1 1 1 2 2 3 2 2 2 2 2 3 2 2 3 3 3 3 3 3 3 3 3 3
1 1 2 2 2 2 1 1 1 1 1 1 1 1 1 0 0 0 0 0 0 0 0 0 1 1 1 1 2 2 2 2 2 2 2 2 3 3 3 3 4 3 3 3
1 1 0 1 1 1 1 1 1 1 1 1 1 2 1 0 0 0 0 0 0 0 0 0 0 1 1 1 1 1 1 1 1 2 2 2 2 2 3 3 3 2 2 2
Wind_Direction
206 214 181 206 197 169 173 179 181 219 219 243 234 211 203 179 159 148 172 177 177 176 178 172 160 156 153 156 154 146 142 161 205 223 240 282 294 296 305 338 354 357 45 27
39 8 189 233 245 183 183 171 191 199 245 248 229 153 160 174 169 185 207 203 193 183 179 181 181 172 159 162 161 148 164 190 207 214 223 246 258 274 327 354 350 30 46 37
226 297 59 268 241 192 190 191 169 198 229 193 159 194 196 192 188 202 215 209 199 193 190 192 190 177 175 176 159 151 173 200 201 196 219 252 258 297 316 327 26 41 23 37
128 87 214 247 264 181 164 204 211 221 213 186 194 201 194 178 183 204 208 205 200 191 188 189 178 172 171 161 157 163 174 197 202 196 216 235 209 252 286 356 40 16 13 352
121 156 262 289 258 170 160 250 223 196 190 141 113 73 351 207 185 198 198 195 188 181 176 164 161 163 150 153 156 164 186 195 200 188 187 176 189 246 245 163 216 253 211 236
122 146 217 240 265 182 116 274 251 176 168 156 121 121 251 220 173 181 167 157 159 148 133 138 155 151 146 164 169 199 211 212 200 177 176 194 215 235 228 195 226 261 284 254
142 185 251 254 276 113 159 239 225 175 169 162 177 198 214 177 159 155 144 142 139 134 140 159 155 146 154 175 208 219 204 190 184 182 189 195 202 220 213 210 236 281 290 299
142 170 250 277 125 175 214 221 167 169 172 170 185 188 171 167 157 136 123 123 132 132 138 148 154 155 169 204 220 184 166 174 188 198 218 195 193 258 259 191 174 250 284 306
182 208 246 277 234 250 185 178 181 168 177 166 159 169 169 159 143 139 137 135 137 138 136 143 162 165 186 220 187 158 159 181 194 198 212 191 202 227 268 215 204 234 236 257
258 278 295 311 309 327 211 184 173 151 153 152 161 163 156 159 158 154 148 150 146 136 146 176 199 199 202 192 166 156 175 200 193 184 255 285 232 214 212 222 225 229 229 242
277 286 323 333 338 345 7 59 88 87 112 147 152 161 173 179 177 167 158 161 157 165 177 195 205 210 194 167 154 165 188 207 223 215 215 231 251 238 225 229 218 214 224 217
218 223 203 249 271 329 70 73 107 105 82 97 160 172 170 180 177 165 165 160 163 176 180 189 194 211 205 178 168 169 192 213 221 223 223 221 238 306 293 247 246 229 227 219
220 216 210 240 258 255 142 151 156 151 160 161 168 166 165 174 170 163 164 168 179 185 184 184 197 226 230 199 176 180 201 211 207 206 213 233 234 242 287 318 316 270 254 240
204 142 205 236 225 215 143 139 99 97 106 144 161 148 151 149 147 167 189 195 181 168 175 181 190 223 228 194 183 193 200 209 207 208 212 224 232 235 235 245 282 300 296 259
236 204 203 224 152 61 99 117 104 74 46 31 78 141 154 156 171 191 193 168 148 156 180 188 202 238 226 191 187 193 193 202 203 205 212 223 232 237 244 245 251 265 288 300
238 90 120 118 118 51 84 155 165 232 238 211 221 218 194 178 176 172 166 160 161 184 201 204 224 239 218 189 181 186 200 209 187 189 204 222 232 238 244 240 248 257 264 269
151 173 182 192 209 233 226 208 191 199 211 227 231 229 163 134 131 174 202 195 188 197 200 205 226 229 197 181 174 189 204 213 199 194 215 222 224 231 238 240 248 258 263 258
196 196 190 186 187 197 235 227 197 194 207 223 195 157 158 173 193 205 214 205 183 239 237 223 219 197 186 174 170 190 197 198 198 210 222 227 228 228 231 244 255 260 271 272
164 164 164 164 172 178 206 234 234 227 219 186 176 193 204 212 209 204 189 177 194 239 256 238 210 189 189 193 178 176 191 205 209 218 221 224 232 242 243 252 261 266 269 266
121 123 124 119 95 165 228 252 251 240 237 200 179 163 193 244 219 191 187 210 225 231 231 217 194 196 205 204 184 173 186 211 221 221 216 221 231 245 254 263 268 269 267 262
93 81 88 73 325 302 251 229 213 219 229 196 189 193 205 229 225 195 191 240 264 241 209 194 189 202 201 190 176 171 181 207 217 212 214 225 235 247 254 257 261 263 264 265
116 281 272 247 242 293 291 262 222 211 204 203 204 194 197 216 217 212 216 225 240 217 193 196 200 199 190 182 178 180 189 203 211 211 215 220 224 235 243 246 249 256 259 261
223 250 261 245 227 251 284 280 245 212 208 216 213 208 214 219 204 195 240 246 217 207 206 216 214 192 175 164 173 188 197 205 213 216 219 227 227 226 233 245 250 253 258 264
257 263 268 269 231 272 288 285 278 262 241 237 220 208 208 217 243 240 229 231 224 217 218 214 209 191 165 165 175 185 195 204 214 217 223 230 237 238 238 243 250 256 256 259
261 244 249 247 249 257 256 262 289 322 313 296 283 258 220 203 214 240 231 223 220 208 220 203 186 179 174 180 189 196 203 210 216 221 230 237 242 246 245 241 238 246 254 256
274 255 252 246 239 236 217 188 209 251 255 300 314 311 314 349 153 247 261 238 218 140 134 165 177 181 193 196 196 204 214 223 224 228 236 247 256 257 254 251 250 249 252 255
286 270 281 321 314 238 187 182 210 241 232 220 247 280 282 303 40 8 273 85 94 106 99 158 179 175 183 201 210 219 226 230 236 241 245 248 253 257 257 259 260 256 253 253